CHH7606 ZSSS-ZBAA

Flight info

Callsign CHH7606
Flight time N/A
Altitude 34100
Route SASAN W161 VMB A593 DALIM W157 AVBOX
Aircraft B738/M-SDE2E3FGILRWXY/LB2

Departure

Time N/A
Airport Shanghai Hongqiao International Airport (ZSSS)

Arrival

Time 2026-05-05 07:30
Airport Beijing Capital International Airport (ZBAA)
Time Latitude Longitude Altitude Speed Heading
2026-05-05 06:03 33.52203 118.65795 34028 ft 404 kts 323°
2026-05-05 06:03 33.54474 118.63824 34026 ft 405 kts 323°
2026-05-05 06:04 33.59014 118.59884 34030 ft 404 kts 323°
2026-05-05 06:04 33.63561 118.55932 34024 ft 404 kts 323°
2026-05-05 06:05 33.68109 118.51974 34022 ft 403 kts 323°
2026-05-05 06:05 33.72635 118.48030 34008 ft 402 kts 323°
2026-05-05 06:06 33.76419 118.44729 34021 ft 401 kts 323°
2026-05-05 06:06 33.80927 118.40791 34013 ft 400 kts 323°
2026-05-05 06:07 33.85427 118.36855 34015 ft 400 kts 323°
2026-05-05 06:07 33.89929 118.32913 34006 ft 400 kts 323°
2026-05-05 06:08 33.94400 118.28994 34010 ft 400 kts 323°
2026-05-05 06:08 33.98900 118.25050 34007 ft 400 kts 324°
2026-05-05 06:09 34.03418 118.21122 34000 ft 400 kts 324°
2026-05-05 06:09 34.07930 118.17193 34003 ft 400 kts 324°
2026-05-05 06:10 34.12445 118.13257 33997 ft 400 kts 324°
2026-05-05 06:10 34.16963 118.09320 34001 ft 400 kts 324°
2026-05-05 06:11 34.21481 118.05381 33995 ft 401 kts 324°
2026-05-05 06:11 34.26004 118.01447 33998 ft 401 kts 327°
2026-05-05 06:12 34.31029 117.98585 33993 ft 400 kts 342°
2026-05-05 06:12 34.36370 117.96701 33991 ft 400 kts 343°
2026-05-05 06:13 34.41719 117.94845 33997 ft 400 kts 343°
2026-05-05 06:13 34.47056 117.92960 33989 ft 399 kts 343°
2026-05-05 06:14 34.52343 117.91072 33990 ft 398 kts 343°
2026-05-05 06:14 34.57658 117.89167 33985 ft 398 kts 343°
2026-05-05 06:15 34.62954 117.87268 33986 ft 396 kts 343°
2026-05-05 06:15 34.68239 117.85370 33988 ft 396 kts 343°
2026-05-05 06:16 34.73518 117.83473 33984 ft 395 kts 343°
2026-05-05 06:16 34.78781 117.81580 33988 ft 394 kts 343°
2026-05-05 06:17 34.84028 117.79680 33986 ft 393 kts 343°
2026-05-05 06:17 34.89270 117.77754 33985 ft 393 kts 343°
2026-05-05 06:18 34.94510 117.75837 33975 ft 392 kts 343°
2026-05-05 06:18 34.99730 117.73929 33977 ft 392 kts 343°
2026-05-05 06:19 35.04953 117.72016 33978 ft 391 kts 343°
2026-05-05 06:19 35.10168 117.70102 33969 ft 391 kts 343°
2026-05-05 06:20 35.15380 117.68186 33964 ft 391 kts 343°
2026-05-05 06:20 35.20588 117.66271 33967 ft 390 kts 343°
2026-05-05 06:21 35.25789 117.64358 33966 ft 390 kts 343°
2026-05-05 06:21 35.30987 117.62444 33967 ft 390 kts 343°
2026-05-05 06:22 35.36157 117.60538 33963 ft 390 kts 343°
2026-05-05 06:22 35.41352 117.58620 33962 ft 390 kts 343°
2026-05-05 06:23 35.46548 117.56700 33953 ft 390 kts 343°
2026-05-05 06:23 35.51738 117.54778 33952 ft 389 kts 343°
2026-05-05 06:24 35.56923 117.52856 33953 ft 390 kts 343°
2026-05-05 06:24 35.62115 117.50929 33951 ft 390 kts 343°
2026-05-05 06:25 35.67312 117.48998 33949 ft 390 kts 343°
2026-05-05 06:25 35.72505 117.47066 33946 ft 390 kts 343°
2026-05-05 06:26 35.77697 117.45131 33942 ft 390 kts 342°
2026-05-05 06:26 35.82890 117.43194 33938 ft 390 kts 342°
2026-05-05 06:27 35.90682 117.40283 33938 ft 390 kts 342°
2026-05-05 06:28 35.95875 117.38341 33934 ft 390 kts 342°
2026-05-05 06:28 36.01074 117.36392 33930 ft 390 kts 342°
2026-05-05 06:29 36.06235 117.34481 33934 ft 390 kts 342°
2026-05-05 06:29 36.11437 117.32561 33927 ft 390 kts 342°
2026-05-05 06:30 36.16644 117.30635 33928 ft 391 kts 342°
2026-05-05 06:30 36.21849 117.28707 33929 ft 391 kts 342°
2026-05-05 06:31 36.27051 117.26777 33922 ft 391 kts 342°
2026-05-05 06:31 36.32261 117.24843 33928 ft 391 kts 342°
2026-05-05 06:32 36.37477 117.22904 33923 ft 391 kts 342°
2026-05-05 06:32 36.42667 117.20890 33917 ft 391 kts 338°
2026-05-05 06:33 36.47690 117.18315 33919 ft 390 kts 336°
2026-05-05 06:33 36.52685 117.15666 33911 ft 390 kts 336°
2026-05-05 06:34 36.57688 117.13033 33908 ft 391 kts 336°
2026-05-05 06:34 36.62698 117.10415 33906 ft 391 kts 336°
2026-05-05 06:35 36.67712 117.07797 33899 ft 391 kts 336°
2026-05-05 06:35 36.72725 117.05178 33893 ft 390 kts 336°
2026-05-05 06:36 36.77729 117.02560 33895 ft 390 kts 336°
2026-05-05 06:36 36.82698 116.99956 33889 ft 390 kts 336°
2026-05-05 06:37 36.87693 116.97334 33886 ft 389 kts 336°
2026-05-05 06:37 36.92687 116.94710 33883 ft 389 kts 336°
2026-05-05 06:38 36.97678 116.92084 33878 ft 389 kts 335°
2026-05-05 06:38 37.02664 116.89457 33878 ft 389 kts 335°
2026-05-05 06:39 37.07649 116.86827 33876 ft 389 kts 335°
2026-05-05 06:39 37.12625 116.84199 33874 ft 388 kts 335°
2026-05-05 06:40 37.17600 116.81568 33873 ft 388 kts 335°
2026-05-05 06:40 37.22606 116.79011 33865 ft 389 kts 340°
2026-05-05 06:41 37.27781 116.77035 33863 ft 389 kts 341°
2026-05-05 06:41 37.32967 116.75114 33869 ft 389 kts 341°
2026-05-05 06:42 37.38151 116.73174 33865 ft 388 kts 341°
2026-05-05 06:42 37.43326 116.71221 33860 ft 388 kts 341°
2026-05-05 06:43 37.48498 116.69261 33859 ft 388 kts 341°
2026-05-05 06:43 37.53595 116.67327 33852 ft 379 kts 341°
2026-05-05 06:44 37.58612 116.65420 33860 ft 376 kts 341°
2026-05-05 06:44 37.63626 116.63509 33486 ft 374 kts 341°
2026-05-05 06:44 37.66097 116.62568 33088 ft 369 kts 341°
2026-05-05 06:45 37.68542 116.61637 32741 ft 365 kts 341°
2026-05-05 06:45 37.70957 116.60715 32362 ft 362 kts 340°
2026-05-05 06:45 37.73361 116.59798 31989 ft 359 kts 340°
2026-05-05 06:45 37.75741 116.58888 31619 ft 356 kts 340°
2026-05-05 06:46 37.78096 116.57987 31263 ft 353 kts 340°
2026-05-05 06:46 37.80438 116.57092 30906 ft 351 kts 340°
2026-05-05 06:46 37.82772 116.56198 30550 ft 348 kts 340°
2026-05-05 06:46 37.85084 116.55313 30201 ft 347 kts 340°
2026-05-05 06:47 37.87384 116.54432 29854 ft 345 kts 340°
2026-05-05 06:47 37.89675 116.53554 29454 ft 343 kts 340°
2026-05-05 06:47 37.91951 116.52680 29051 ft 340 kts 340°
2026-05-05 06:47 37.94208 116.51812 28691 ft 337 kts 340°
2026-05-05 06:48 37.96424 116.50899 28314 ft 333 kts 335°
2026-05-05 06:48 37.98489 116.49620 27889 ft 330 kts 326°
2026-05-05 06:48 38.00373 116.47962 27491 ft 328 kts 322°
2026-05-05 06:48 38.02203 116.46258 27117 ft 326 kts 322°
2026-05-05 06:49 38.04026 116.44557 26762 ft 324 kts 322°
2026-05-05 06:49 38.05840 116.42877 26410 ft 322 kts 322°
2026-05-05 06:49 38.07650 116.41211 26060 ft 320 kts 322°
2026-05-05 06:49 38.09450 116.39559 25720 ft 318 kts 322°
2026-05-05 06:50 38.11216 116.37938 25386 ft 317 kts 322°
2026-05-05 06:50 38.13024 116.36277 25004 ft 316 kts 322°
2026-05-05 06:50 38.14778 116.34666 24670 ft 315 kts 322°
2026-05-05 06:50 38.16545 116.33042 24330 ft 314 kts 322°
2026-05-05 06:51 38.18318 116.31412 23996 ft 313 kts 322°
2026-05-05 06:51 38.20081 116.29790 23656 ft 313 kts 322°
2026-05-05 06:51 38.21840 116.28170 23294 ft 313 kts 321°
2026-05-05 06:51 38.23602 116.26549 22910 ft 312 kts 323°
2026-05-05 06:52 38.25581 116.25393 22506 ft 317 kts 343°
2026-05-05 06:52 38.27773 116.25126 22171 ft 321 kts
2026-05-05 06:52 38.29969 116.25677 21849 ft 322 kts
2026-05-05 06:52 38.32133 116.26411 21492 ft 321 kts 11°
2026-05-05 06:53 38.34280 116.27180 21154 ft 320 kts 11°
2026-05-05 06:53 38.36418 116.27947 20825 ft 319 kts 11°
2026-05-05 06:53 38.38550 116.28705 20493 ft 317 kts 11°
2026-05-05 06:53 38.40673 116.29452 20169 ft 316 kts 11°
2026-05-05 06:54 38.42102 116.29951 19950 ft 315 kts 11°
2026-05-05 06:54 38.44214 116.30684 19620 ft 314 kts 10°
2026-05-05 06:54 38.46302 116.31407 19304 ft 314 kts 11°
2026-05-05 06:54 38.48406 116.32133 18984 ft 313 kts 10°
2026-05-05 06:55 38.50505 116.32858 18660 ft 312 kts 11°
2026-05-05 06:55 38.52599 116.33582 18336 ft 312 kts 11°
2026-05-05 06:55 38.54692 116.34309 18006 ft 311 kts 11°
2026-05-05 06:55 38.56784 116.35032 17636 ft 311 kts 11°
2026-05-05 06:56 38.58870 116.35754 17291 ft 310 kts 11°
2026-05-05 06:56 38.60943 116.36471 16953 ft 308 kts 11°
2026-05-05 06:56 38.63009 116.37190 16619 ft 307 kts 13°
2026-05-05 06:56 38.64890 116.38501 16367 ft 311 kts 38°
2026-05-05 06:57 38.66259 116.40610 16381 ft 307 kts 53°
2026-05-05 06:57 38.67428 116.42949 16372 ft 321 kts 54°
2026-05-05 06:57 38.68631 116.45463 16352 ft 340 kts 56°
2026-05-05 06:57 38.69863 116.48068 16290 ft 341 kts 56°
2026-05-05 06:58 38.71082 116.50642 16235 ft 335 kts 56°
2026-05-05 06:58 38.72289 116.53177 16187 ft 330 kts 55°
2026-05-05 06:58 38.73478 116.55658 16159 ft 325 kts 55°
2026-05-05 06:58 38.74656 116.58106 16134 ft 323 kts 55°
2026-05-05 06:59 38.75847 116.60576 16109 ft 327 kts 55°
2026-05-05 06:59 38.77044 116.63056 16081 ft 327 kts 55°
2026-05-05 06:59 38.78233 116.65522 16048 ft 323 kts 56°
2026-05-05 06:59 38.79422 116.67990 16026 ft 328 kts 55°
2026-05-05 07:00 38.80632 116.70495 16000 ft 333 kts 56°
2026-05-05 07:00 38.81859 116.73042 15969 ft 337 kts 55°
2026-05-05 07:00 38.83095 116.75608 15932 ft 339 kts 55°
2026-05-05 07:00 38.84322 116.78161 15884 ft 336 kts 55°
2026-05-05 07:01 38.85553 116.80728 15859 ft 338 kts 55°
2026-05-05 07:01 38.86772 116.83272 15826 ft 339 kts 56°
2026-05-05 07:01 38.87996 116.85828 15796 ft 334 kts 56°
2026-05-05 07:01 38.89219 116.88376 15765 ft 334 kts 56°
2026-05-05 07:02 38.90433 116.90910 15732 ft 334 kts 56°
2026-05-05 07:02 38.91651 116.93455 15704 ft 334 kts 56°
2026-05-05 07:02 38.92864 116.95993 15660 ft 332 kts 56°
2026-05-05 07:02 38.94048 116.98475 15622 ft 328 kts 56°
2026-05-05 07:03 38.95250 117.00993 15588 ft 326 kts 56°
2026-05-05 07:03 38.96438 117.03484 15573 ft 326 kts 56°
2026-05-05 07:03 38.97635 117.05996 15544 ft 325 kts 56°
2026-05-05 07:03 38.98819 117.08481 15517 ft 325 kts 56°
2026-05-05 07:04 39.00044 117.11053 15485 ft 326 kts 56°
2026-05-05 07:04 39.01259 117.13551 15455 ft 325 kts 51°
2026-05-05 07:04 39.02908 117.15489 15413 ft 321 kts 25°
2026-05-05 07:04 39.04987 117.16404 15346 ft 316 kts
2026-05-05 07:05 39.07153 117.16294 15233 ft 307 kts 342°
2026-05-05 07:05 39.09177 117.15502 15138 ft 304 kts 337°
2026-05-05 07:05 39.11167 117.14604 15035 ft 304 kts 336°
2026-05-05 07:05 39.13134 117.13696 14912 ft 302 kts 336°
2026-05-05 07:06 39.15113 117.12784 14801 ft 301 kts 336°
2026-05-05 07:06 39.17092 117.11882 14693 ft 302 kts 336°
2026-05-05 07:06 39.19073 117.10987 14575 ft 302 kts 337°
2026-05-05 07:06 39.21057 117.10097 14467 ft 301 kts 337°
2026-05-05 07:07 39.23031 117.09216 14364 ft 300 kts 337°
2026-05-05 07:07 39.25002 117.08337 14250 ft 299 kts 337°
2026-05-05 07:07 39.26970 117.07459 14141 ft 298 kts 336°
2026-05-05 07:07 39.28932 117.06585 14031 ft 298 kts 337°
2026-05-05 07:08 39.30892 117.05712 13923 ft 298 kts 337°
2026-05-05 07:08 39.32847 117.04840 13807 ft 298 kts 337°
2026-05-05 07:08 39.34806 117.03967 13699 ft 297 kts 337°
2026-05-05 07:08 39.36761 117.03092 13594 ft 297 kts 337°
2026-05-05 07:09 39.38714 117.02218 13462 ft 298 kts 337°
2026-05-05 07:09 39.40691 117.01331 13262 ft 301 kts 337°
2026-05-05 07:09 39.42675 117.00441 13077 ft 303 kts 337°
2026-05-05 07:09 39.44665 116.99549 12868 ft 302 kts 337°
2026-05-05 07:10 39.46649 116.98660 12692 ft 301 kts 337°
2026-05-05 07:10 39.48626 116.97773 12484 ft 300 kts 337°
2026-05-05 07:10 39.50594 116.96891 12303 ft 298 kts 336°
2026-05-05 07:10 39.52538 116.96020 12109 ft 295 kts 336°
2026-05-05 07:11 39.54471 116.95152 11936 ft 293 kts 336°
2026-05-05 07:11 39.56394 116.94289 11759 ft 292 kts 336°
2026-05-05 07:11 39.58316 116.93422 11572 ft 291 kts 336°
2026-05-05 07:11 39.60229 116.92560 11388 ft 291 kts 336°
2026-05-05 07:12 39.62172 116.91817 11207 ft 293 kts 345°
2026-05-05 07:12 39.64195 116.91439 11040 ft 295 kts 349°
2026-05-05 07:12 39.66243 116.91169 10858 ft 295 kts 350°
2026-05-05 07:12 39.68262 116.90915 10673 ft 296 kts 349°
2026-05-05 07:13 39.70338 116.90643 10490 ft 296 kts 349°
2026-05-05 07:13 39.72362 116.90363 10309 ft 297 kts 349°
2026-05-05 07:13 39.74443 116.90064 10123 ft 297 kts 348°
2026-05-05 07:13 39.76503 116.89762 9943 ft 298 kts 348°
2026-05-05 07:14 39.78527 116.89460 9753 ft 296 kts 348°
2026-05-05 07:14 39.80556 116.89157 9557 ft 290 kts 348°
2026-05-05 07:14 39.82547 116.88858 9369 ft 287 kts 348°
2026-05-05 07:14 39.84524 116.88559 9188 ft 286 kts 348°
2026-05-05 07:15 39.86504 116.88258 9008 ft 288 kts 348°
2026-05-05 07:15 39.88499 116.87953 8825 ft 290 kts 348°
2026-05-05 07:15 39.90495 116.87649 8647 ft 291 kts 348°
2026-05-05 07:15 39.92506 116.87343 8466 ft 291 kts 348°
2026-05-05 07:16 39.94514 116.87039 8314 ft 290 kts 348°
2026-05-05 07:16 39.96525 116.86732 8158 ft 291 kts 348°
2026-05-05 07:16 39.98534 116.86426 7995 ft 291 kts 347°
2026-05-05 07:16 40.00539 116.86111 7836 ft 290 kts 345°
2026-05-05 07:17 40.02374 116.85212 7663 ft 276 kts 318°
2026-05-05 07:17 40.03637 116.83449 7532 ft 262 kts 293°
2026-05-05 07:17 40.04266 116.81279 7399 ft 252 kts 276°
2026-05-05 07:17 40.04305 116.79037 7270 ft 245 kts 261°
2026-05-05 07:18 40.04429 116.76821 7257 ft 251 kts 283°
2026-05-05 07:18 40.05333 116.74831 7228 ft 267 kts 307°
2026-05-05 07:18 40.06911 116.73456 7109 ft 282 kts 334°
2026-05-05 07:18 40.08873 116.72952 6987 ft 289 kts 347°
2026-05-05 07:19 40.10879 116.72656 6813 ft 287 kts 348°
2026-05-05 07:19 40.12860 116.72387 6666 ft 287 kts 348°
2026-05-05 07:19 40.14832 116.72107 6508 ft 290 kts 348°
2026-05-05 07:19 40.16833 116.71809 6341 ft 290 kts 347°
2026-05-05 07:20 40.18830 116.71505 6190 ft 289 kts 347°
2026-05-05 07:20 40.20793 116.71202 6036 ft 288 kts 347°
2026-05-05 07:20 40.22804 116.70889 5857 ft 289 kts 347°
2026-05-05 07:20 40.24788 116.70581 5680 ft 288 kts 347°
2026-05-05 07:21 40.26789 116.70271 5511 ft 288 kts 347°
2026-05-05 07:21 40.28778 116.69962 5353 ft 287 kts 347°
2026-05-05 07:21 40.30741 116.69659 5181 ft 281 kts 347°
2026-05-05 07:21 40.32662 116.69361 5035 ft 275 kts 347°
2026-05-05 07:22 40.34458 116.68744 4859 ft 259 kts 323°
2026-05-05 07:22 40.35731 116.67256 4741 ft 236 kts 294°
2026-05-05 07:22 40.36383 116.65390 4633 ft 219 kts 276°
2026-05-05 07:22 40.36554 116.63433 4497 ft 205 kts 258°
2026-05-05 07:23 40.36368 116.61591 4407 ft 203 kts 254°
2026-05-05 07:23 40.36130 116.59740 4290 ft 207 kts 253°
2026-05-05 07:23 40.35883 116.57872 4158 ft 206 kts 254°
2026-05-05 07:23 40.35638 116.56042 4054 ft 200 kts 249°
2026-05-05 07:24 40.34963 116.54548 3959 ft 186 kts 219°
2026-05-05 07:24 40.33812 116.53898 3970 ft 185 kts 184°
2026-05-05 07:24 40.32533 116.53863 3924 ft 182 kts 184°
2026-05-05 07:24 40.31705 116.53826 3956 ft 177 kts 182°
2026-05-05 07:25 40.30444 116.53857 3923 ft 177 kts 179°
2026-05-05 07:25 40.29194 116.53985 3731 ft 184 kts 177°
2026-05-05 07:25 40.27933 116.54164 3498 ft 186 kts 176°
2026-05-05 07:25 40.26640 116.54361 3261 ft 189 kts 174°
2026-05-05 07:26 40.25336 116.54569 3036 ft 189 kts 173°
2026-05-05 07:26 40.24027 116.54779 2781 ft 191 kts 172°
2026-05-05 07:26 40.22696 116.54989 2533 ft 195 kts 173°
2026-05-05 07:26 40.21338 116.55210 2282 ft 200 kts 173°
2026-05-05 07:27 40.19956 116.55429 2020 ft 198 kts 174°
2026-05-05 07:27 40.18593 116.55638 1771 ft 192 kts 173°
2026-05-05 07:27 40.17295 116.55846 1514 ft 184 kts 172°
2026-05-05 07:27 40.16062 116.56042 1283 ft 173 kts 173°
2026-05-05 07:28 40.14903 116.56222 1053 ft 162 kts 173°
2026-05-05 07:28 40.13826 116.56392 884 ft 146 kts 171°
2026-05-05 07:28 40.12890 116.56545 675 ft 129 kts 173°
2026-05-05 07:28 40.11992 116.56687 504 ft 132 kts 171°
2026-05-05 07:29 40.11074 116.56833 389 ft 137 kts 169°
2026-05-05 07:29 40.10152 116.56989 166 ft 131 kts 171°
2026-05-05 07:29 40.09321 116.57115 121 ft 103 kts 173°
2026-05-05 07:29 40.08753 116.57204 120 ft 61 kts 173°
2026-05-05 07:30 40.08469 116.57261 118 ft 31 kts 163°
2026-05-05 07:30 40.08177 116.57491 122 ft 12 kts 144°
2026-05-05 07:30 40.08154 116.57574 123 ft 10 kts 83°
2026-05-05 07:31 40.08163 116.57666 121 ft 10 kts 83°
2026-05-05 07:31 40.08171 116.57755 124 ft 10 kts 83°
2026-05-05 07:31 40.08178 116.57841 120 ft 9 kts 93°
2026-05-05 07:31 40.08136 116.57889 119 ft 9 kts 178°
2026-05-05 07:32 40.08071 116.57898 122 ft 9 kts 163°
2026-05-05 07:32 40.08027 116.57952 121 ft 9 kts 118°
2026-05-05 07:32 40.08023 116.58022 122 ft 4 kts 77°
2026-05-05 07:32 40.08038 116.58046 122 ft 2 kts 31°
2026-05-05 07:33 40.08041 116.58048 122 ft 0 kts 27°
2026-05-05 07:33 40.08050 116.58053 120 ft 2 kts 21°
2026-05-05 07:33 40.08054 116.58054 121 ft 0 kts 15°